Torna al catalogo

FENGYUN 1C DEB

AttivoSSO
NORAD 31199·DEBRIS·🇨🇳 China

Lanciato May 10, 1999 da Taiyuan Satellite Launch Center

Loading…

Prossimi Passaggi (prossime 24 ore)

TLE

AggiornatoSource: Space-Track

Epoca: Sep 13, 2026, 04:08 UTC

1 31199U 99025BKD 26256.17225786  .00000236  00000-0  15465-3 0  9992
2 31199  98.7421 235.8732 0063364 201.2190 218.9254 14.10157837   225

Traccia FENGYUN 1C DEB in tempo reale con AllMySat

Download on the App Store